Wind_Speed
46 46 47 47 47 47 49 50 49 49 50 52 54 55 57 59 59 59 57 57 59 62 66 70 71 72 72 72 73 75 75 76 77 76 74 71 67 63 59 55 51 48 46 46 46 47 48 48 49 51 53 58 65 72 78 83 84 86 89 96 104 106 103 105 112 119 124 126 119 109 114 118 114 119
47 48 48 48 48 49 50 51 50 51 53 54 55 56 57 59 61 61 60 58 59 62 66 70 71 71 72 72 73 74 75 75 75 74 70 66 63 59 55 52 50 48 47 47 45 45 47 47 48 50 52 56 63 70 76 82 84 86 89 97 106 108 105 107 115 123 128 127 115 102 109 120 116 118
48 49 50 50 51 51 52 52 51 53 55 56 56 57 58 59 61 63 63 60 59 62 66 69 70 70 71 72 72 73 74 73 73 71 66 62 59 55 51 50 50 48 47 48 46 44 45 46 47 48 50 53 60 67 74 80 83 85 88 97 109 110 106 109 116 125 132 126 110 99 109 122 119 114
48 49 51 52 52 52 52 52 53 54 56 57 57 57 58 60 61 63 65 63 60 62 67 68 69 70 71 72 72 72 72 71 70 67 62 58 54 51 48 47 48 48 46 47 46 44 43 45 46 48 49 51 57 65 72 79 82 85 88 96 110 112 107 111 117 126 133 122 104 98 109 124 122 110
48 49 51 52 51 51 52 52 53 54 56 58 58 58 59 60 61 63 65 65 62 62 66 68 68 69 70 71 72 72 71 69 67 63 58 54 50 47 46 46 45 45 45 45 44 43 42 43 44 46 48 50 55 62 70 78 82 86 88 95 111 114 109 113 118 126 131 117 101 98 107 123 125 109
49 49 49 50 50 51 51 52 53 54 56 58 58 59 60 60 61 64 65 66 64 63 65 66 67 68 69 70 70 71 70 67 64 60 54 50 45 43 45 45 43 42 43 45 43 41 40 41 43 45 47 48 52 59 68 77 82 87 89 95 110 117 112 115 121 126 128 115 100 98 104 118 124 111
52 50 49 50 51 52 53 53 54 55 57 58 58 59 60 60 61 64 65 66 66 65 65 64 66 67 68 69 69 69 69 66 62 56 51 46 42 41 44 45 44 43 43 44 43 42 40 39 41 44 46 47 50 57 66 76 82 86 89 94 108 119 115 117 125 128 126 116 103 99 106 118 124 115
54 53 51 52 54 55 55 55 55 56 57 58 59 59 59 60 61 63 65 66 66 67 65 63 64 66 67 67 67 67 67 64 59 54 49 43 39 40 43 44 44 44 44 43 42 42 40 38 39 42 45 46 48 55 65 75 81 84 89 92 104 118 119 119 128 130 126 120 109 103 109 120 124 119
57 57 56 55 56 58 58 56 55 56 57 58 59 59 59 60 61 63 65 65 66 68 66 62 63 66 66 65 65 66 66 61 57 52 47 42 38 39 42 43 44 45 44 43 42 41 41 39 38 40 43 45 47 53 63 73 80 83 87 91 101 116 122 123 129 133 130 123 112 106 110 118 124 121
61 60 59 58 58 58 58 56 55 55 57 59 60 59 59 60 61 62 64 65 66 67 65 62 63 65 65 64 64 65 64 59 54 50 44 40 37 38 39 41 44 46 45 44 43 42 41 39 37 38 41 45 46 52 62 72 78 82 86 91 99 113 124 127 131 136 134 123 111 108 110 116 123 122
58 57 56 56 57 57 56 55 54 54 56 59 60 60 59 60 61 62 63 64 65 64 62 62 63 64 64 63 63 63 61 57 53 48 43 38 36 37 39 41 44 47 47 45 44 43 42 40 37 36 39 43 46 51 61 70 77 81 85 91 98 110 123 130 133 138 136 121 110 111 112 114 121 123
54 53 53 54 55 55 55 54 54 52 53 56 58 58 59 60 60 62 63 63 63 62 60 61 63 63 63 62 62 61 58 54 49 45 42 38 35 37 40 43 45 47 47 45 44 43 43 41 38 35 36 41 45 50 60 70 75 80 84 90 97 107 120 130 136 141 137 121 110 113 115 114 116 120
52 51 51 52 53 53 53 53 53 51 50 52 55 56 58 59 60 62 62 62 60 59 59 60 61 61 61 61 60 58 55 51 45 41 40 38 37 39 41 42 46 49 48 45 42 42 42 41 38 35 33 38 44 50 59 69 75 79 85 90 96 104 116 129 137 142 139 123 110 112 118 118 113 113
50 50 50 50 50 50 51 52 52 51 49 50 53 55 57 58 60 61 60 59 58 57 57 58 58 59 59 59 58 55 51 48 43 38 37 38 39 41 42 41 45 49 49 45 40 40 41 41 38 35 33 36 43 48 57 68 74 79 85 89 95 102 113 127 137 143 142 128 112 110 117 120 115 111
49 48 48 48 48 48 49 50 50 49 48 49 51 54 56 58 60 60 59 57 55 55 56 56 56 56 58 57 56 53 49 44 40 35 36 38 39 42 44 43 43 46 47 44 38 36 39 43 41 35 33 36 41 47 56 67 74 79 85 89 95 101 110 124 135 143 145 132 114 110 115 119 117 111
47 47 46 46 46 47 48 48 48 47 46 47 50 53 56 58 59 59 58 56 54 54 54 54 54 54 56 55 53 51 46 40 36 33 34 38 40 42 44 44 43 44 45 43 38 32 35 43 44 37 34 36 41 46 56 67 74 79 85 89 94 100 109 121 132 141 147 135 116 110 114 120 119 111
46 46 45 45 45 46 46 46 46 45 44 46 49 52 54 56 56 56 56 54 53 54 54 53 53 52 53 53 50 48 43 37 33 32 32 37 40 42 43 43 42 42 43 44 38 31 32 42 45 39 36 38 41 45 56 67 73 79 85 89 94 100 108 119 128 139 147 137 118 111 115 121 121 112
46 45 44 44 44 45 45 45 44 42 42 44 47 50 52 53 53 53 53 52 52 52 53 53 53 51 51 51 48 44 40 35 31 30 32 36 39 40 41 41 41 41 44 46 39 31 34 41 43 39 37 39 40 44 54 67 74 78 85 89 93 99 108 118 126 136 145 138 119 112 116 121 123 115
45 44 43 43 43 43 43 42 41 39 40 43 46 49 50 49 50 50 49 50 50 50 52 53 52 50 49 49 47 42 37 32 30 30 32 36 39 39 39 39 40 41 45 47 43 36 37 41 39 36 37 38 38 42 52 65 73 78 84 89 92 98 107 118 126 134 144 139 122 114 117 121 123 118
43 42 42 42 42 41 40 39 38 38 40 43 46 47 46 46 47 47 47 48 48 49 50 52 51 49 48 48 45 39 33 30 28 29 32 37 39 39 38 38 38 41 44 47 46 42 40 40 36 32 34 35 37 41 49 62 72 77 83 88 91 96 105 117 127 134 142 141 127 116 116 120 122 118
41 40 40 40 40 39 38 36 37 38 41 43 43 43 42 43 43 44 45 46 47 48 50 50 49 47 46 46 43 36 31 28 28 29 31 35 38 40 40 39 37 39 44 47 47 45 42 38 33 29 30 32 35 41 48 59 70 76 82 88 90 93 101 114 127 134 138 141 134 121 115 118 121 118
38 38 38 38 38 37 36 35 37 39 40 41 40 39 39 40 40 41 43 44 45 47 48 48 47 46 45 44 40 33 28 26 28 29 31 33 37 40 42 40 36 37 43 47 47 46 43 37 30 26 26 28 34 40 47 57 68 74 81 87 90 91 97 109 124 133 136 140 139 128 117 117 122 120
36 36 36 37 37 35 35 35 37 38 38 38 37 36 36 37 38 40 41 42 44 46 46 46 46 45 45 43 39 31 26 25 26 28 30 33 37 40 42 41 38 38 43 47 47 45 42 36 29 23 21 25 32 39 46 55 65 72 79 86 89 90 94 104 118 130 135 138 140 134 123 118 122 122
33 34 35 36 35 34 34 35 36 36 36 35 34 34 34 35 36 38 39 41 43 44 45 44 44 45 45 43 38 31 25 24 25 27 30 32 36 40 40 38 38 41 45 47 45 42 38 32 26 20 18 23 31 38 46 55 63 70 76 83 88 90 93 101 113 126 134 137 138 137 129 124 123 122
32 33 34 33 33 33 34 34 34 34 33 32 31 31 32 33 35 36 37 40 42 43 44 43 44 45 46 44 38 30 24 23 24 27 29 31 35 40 40 35 36 42 47 46 42 38 34 29 23 17 15 21 29 37 45 54 61 68 74 81 86 88 93 100 110 122 132 135 136 137 134 131 128 124
30 31 30 30 31 32 32 31 31 31 31 29 28 29 31 32 33 34 36 38 40 42 42 42 42 44 44 43 38 30 24 22 23 26 29 30 34 38 37 34 36 41 44 44 41 39 36 31 23 15 12 18 26 35 44 52 60 67 73 80 84 86 91 98 109 120 130 132 134 136 136 136 134 128
27 27 27 28 28 27 27 27 28 28 27 26 27 28 29 30 31 33 35 37 39 40 40 40 40 42 42 41 37 29 23 22 23 26 27 29 32 34 31 31 36 39 39 38 38 40 39 33 23 14 10 15 24 33 42 51 59 65 71 78 82 84 87 95 107 120 129 131 131 133 137 139 137 132
25 24 23 23 23 22 23 25 26 24 24 24 26 27 28 29 31 32 34 36 37 38 39 38 39 40 40 40 36 28 22 21 22 25 26 28 30 29 25 27 34 36 34 33 34 38 38 32 22 13 7 13 22 31 41 50 58 63 69 76 81 82 83 89 102 118 129 131 130 130 134 139 139 136
21 20 19 19 19 20 22 23 22 22 22 24 25 26 27 28 30 32 33 35 36 37 37 37 38 39 39 39 35 28 21 19 21 23 25 27 28 26 22 25 31 33 32 31 32 35 36 32 24 14 5 11 19 29 39 49 56 62 68 74 78 80 81 83 94 113 127 131 129 128 132 137 140 138
18 17 17 18 18 19 21 20 20 21 22 22 24 25 26 27 29 31 32 34 35 36 36 36 36 37 37 37 35 28 20 18 19 22 23 24 27 25 22 24 29 31 30 29 30 33 36 34 27 17 6 7 16 26 36 46 53 59 65 72 76 78 79 80 87 104 121 129 128 128 131 135 138 139
17 17 17 17 17 18 19 19 19 20 20 22 23 24 25 27 29 31 32 33 34 35 35 35 34 35 36 36 34 28 21 17 18 20 21 22 24 23 20 23 28 30 28 27 27 30 34 36 31 20 8 2 12 23 33 42 51 56 62 70 74 74 75 77 82 94 111 123 127 126 128 132 136 138
16 17 17 17 16 17 18 18 18 19 20 21 22 23 24 26 28 30 31 32 33 34 34 34 33 34 35 36 34 29 21 16 17 19 20 20 22 20 17 19 26 29 27 24 24 26 30 34 33 26 14 2 9 19 29 38 47 54 61 67 71 71 72 74 77 86 100 115 122 122 122 126 131 134
16 16 16 16 16 17 17 17 18 18 19 20 21 22 24 26 28 30 31 31 32 33 33 33 33 33 34 35 35 31 21 15 15 17 18 19 20 18 14 15 22 26 25 22 22 24 26 29 31 29 19 6 8 16 25 34 43 51 58 65 68 69 70 72 74 80 90 104 114 116 115 119 125 128
16 16 15 15 16 16 16 17 17 18 18 19 20 22 24 26 28 29 30 31 31 31 31 31 32 32 33 33 34 32 24 15 13 15 17 17 17 17 15 14 18 23 24 21 19 21 22 23 25 26 20 9 7 15 22 31 39 47 55 62 65 66 67 68 71 75 82 95 105 107 106 110 115 119
15 15 14 14 14 15 16 16 17 17 17 18 20 21 23 25 27 29 30 31 31 30 30 30 30 30 31 32 32 32 27 16 12 14 16 15 15 16 15 12 13 18 21 20 18 18 18 18 19 21 18 11 6 13 21 28 35 43 52 58 61 63 63 65 68 71 76 87 97 99 96 99 105 109
14 13 13 13 13 14 15 16 16 16 17 18 19 21 23 24 27 29 29 30 31 30 30 30 29 29 30 30 30 31 28 19 12 12 15 15 14 15 15 10 8 13 18 17 16 16 15 14 16 18 16 10 6 12 20 26 31 38 48 55 58 59 60 61 63 66 71 80 90 92 89 89 94 99
12 12 12 12 13 14 15 15 15 15 16 18 19 21 23 24 26 28 29 30 30 30 29 29 29 28 28 29 29 29 29 22 13 11 12 14 14 13 13 11 7 8 14 15 14 14 13 12 13 16 17 13 8 10 18 25 29 34 44 52 54 55 57 57 58 61 65 72 83 87 83 81 85 90
11 11 12 12 13 14 14 14 14 14 16 18 19 21 23 24 26 28 29 30 30 30 29 28 27 27 27 27 27 27 28 25 17 11 11 13 14 12 11 11 8 7 8 12 13 11 11 10 10 13 16 14 10 7 12 20 27 31 39 47 50 50 51 52 53 55 58 64 73 79 76 75 78 84
10 11 12 12 13 13 13 13 13 14 15 17 19 21 22 24 26 27 28 29 29 29 29 27 27 26 26 25 25 25 26 26 21 13 11 12 13 12 10 10 9 6 6 7 9 9 8 7 7 9 11 11 8 7 8 15 23 29 35 42 46 48 48 49 49 50 52 55 62 68 68 68 71 77
10 11 12 13 13 13 13 12 12 13 15 17 19 21 22 24 25 27 28 29 29 29 29 27 26 26 25 25 24 24 23 24 23 18 12 11 12 12 10 9 8 7 5 6 6 6 5 3 2 5 7 6 5 6 7 11 19 26 31 37 42 45 46 47 47 47 48 50 53 56 59 62 66 70
11 12 12 13 13 13 13 12 12 13 15 18 19 21 22 24 25 27 28 29 29 29 28 27 26 25 24 24 24 23 23 22 22 21 16 11 12 11 11 9 8 7 5 5 7 7 5 3 2 3 5 5 5 7 8 10 16 22 28 34 38 40 43 44 45 46 47 47 48 49 51 56 61 64
11 12 12 13 14 13 12 11 12 14 16 18 20 21 22 24 25 27 28 29 29 29 29 27 26 24 24 23 23 22 22 21 21 20 19 14 11 12 12 11 9 7 6 5 6 8 8 6 4 4 6 8 10 10 11 12 16 20 25 31 35 37 40 42 44 45 46 46 47 48 49 52 56 59
9 11 12 13 13 12 11 11 12 14 16 18 20 22 23 24 25 27 28 29 29 29 29 28 26 24 23 22 22 21 21 20 20 19 18 17 13 10 12 12 11 9 7 6 5 5 7 8 7 7 7 9 12 14 15 15 17 19 23 28 33 36 38 41 42 43 45 45 46 47 48 50 52 55
9 10 12 13 13 12 11 11 13 14 17 19 21 22 23 25 26 27 28 29 30 30 29 28 26 24 23 22 21 20 20 19 19 18 17 17 15 12 10 13 13 12 10 8 6 5 5 7 9 9 8 7 10 13 16 18 20 22 23 27 31 35 38 40 41 42 43 44 45 46 46 48 49 51
10 11 12 12 12 12 12 12 13 15 17 19 21 23 24 25 26 27 28 29 30 30 29 28 26 25 23 22 21 20 19 19 18 18 17 16 15 14 11 10 13 14 13 11 9 7 6 6 8 10 10 8 9 12 14 17 21 25 27 27 30 34 37 39 41 42 43 44 46 46 46 47 48 50
Wind_Direction
283 283 284 284 283 285 290 293 294 295 296 298 299 300 301 302 303 304 305 306 306 308 307 307 309 310 310 312 312 313 314 314 315 315 313 311 308 306 304 304 305 305 307 307 300 289 281 272 263 254 245 238 232 229 225 221 218 215 210 204 199 197 197 199 198 195 192 191 193 197 202 204 204 205
283 282 282 283 283 286 291 292 292 294 295 297 299 300 301 303 305 306 306 307 307 308 308 308 310 310 311 313 313 313 314 315 315 314 312 310 306 304 304 303 305 308 310 310 304 293 283 273 264 255 246 239 233 229 225 221 218 214 209 203 199 197 197 198 197 193 190 190 193 195 198 202 205 206
280 280 280 282 284 286 289 290 291 293 294 296 298 300 301 303 305 306 307 308 308 309 310 309 310 311 311 313 314 314 315 316 315 313 311 308 304 303 304 304 307 312 313 312 306 296 286 275 266 257 249 241 234 229 226 222 218 214 209 203 199 197 197 197 196 193 190 190 193 194 196 201 206 208
277 278 279 281 283 285 287 289 290 292 294 296 298 300 301 303 304 305 307 308 308 310 311 310 310 311 312 313 314 314 316 316 314 312 309 306 303 303 304 306 309 313 314 312 308 300 289 277 268 258 250 244 236 230 226 222 217 212 209 204 199 197 196 196 195 193 190 191 192 192 195 201 206 208
274 276 277 279 281 283 286 288 290 292 294 295 297 299 301 303 303 305 306 307 308 310 312 311 310 312 312 313 314 314 316 316 313 311 307 304 302 302 305 306 307 309 310 311 309 304 294 281 270 260 253 246 239 232 226 221 217 211 209 205 200 197 196 196 196 193 190 190 190 190 194 201 205 207
272 274 276 278 280 282 285 288 290 292 293 294 296 299 301 302 303 304 305 307 308 310 312 311 311 312 313 313 314 315 316 315 312 310 305 302 300 301 303 303 302 304 307 309 309 307 300 287 274 262 255 248 241 233 226 220 216 211 208 205 200 197 196 196 195 193 191 191 190 188 192 199 203 205
270 272 274 276 279 281 284 287 289 290 292 293 295 298 300 301 302 303 305 308 309 310 312 311 311 312 313 313 315 315 316 315 311 308 304 300 299 298 299 298 297 298 301 304 307 308 305 295 280 266 256 251 242 234 226 219 215 212 208 205 201 198 196 196 195 194 193 193 191 188 191 197 201 203
270 271 273 276 279 281 283 286 287 289 290 292 294 297 298 300 301 303 306 308 309 311 312 312 312 312 312 314 315 315 315 314 310 306 303 301 298 296 298 297 294 294 297 299 302 305 306 300 288 272 259 252 244 234 226 219 215 213 209 205 201 198 197 196 196 196 195 195 193 189 190 195 199 200
268 271 274 276 278 280 282 284 286 287 289 291 293 295 297 299 301 303 306 308 310 311 312 312 312 312 313 315 316 315 315 313 309 305 303 303 300 297 299 297 293 293 295 297 299 301 303 302 293 279 263 253 244 234 225 219 216 213 209 206 201 199 199 198 197 197 197 196 193 189 189 194 198 199
268 270 274 276 277 278 280 282 284 285 287 289 291 294 296 298 301 304 306 308 310 311 312 312 312 312 313 316 316 315 314 311 307 304 303 304 302 299 300 300 296 294 294 296 297 298 299 299 295 284 268 255 244 234 225 219 216 213 209 206 202 200 200 199 198 198 197 194 191 188 189 193 197 199
268 271 273 275 276 277 278 279 282 284 285 287 289 292 295 298 301 304 306 308 310 311 312 313 313 313 315 317 316 315 314 310 306 304 303 303 301 299 302 302 299 297 295 295 297 298 297 295 293 286 272 257 245 233 224 218 216 213 209 206 203 201 200 200 199 198 197 193 188 188 189 192 195 199
269 271 273 275 276 277 277 278 279 282 285 286 287 290 294 298 301 303 306 309 310 311 312 313 313 314 316 317 317 316 313 309 304 302 302 302 300 299 302 303 299 296 295 296 299 299 296 293 289 284 273 260 246 233 223 217 215 213 209 206 204 202 201 201 200 198 196 193 188 188 190 192 194 197
269 270 272 274 276 277 278 276 276 280 285 286 287 290 293 297 300 303 306 309 310 311 312 313 314 316 317 317 317 316 312 307 303 300 299 299 299 300 302 303 300 298 298 299 300 299 294 290 287 281 272 260 247 234 223 217 215 213 209 207 205 203 202 201 200 199 196 194 190 188 191 194 195 196
267 269 271 274 276 278 277 276 275 279 285 287 287 289 293 296 300 303 307 309 310 311 312 314 315 317 317 317 317 315 310 305 302 298 296 296 298 301 303 303 303 303 303 304 304 302 296 291 286 279 270 259 247 233 222 216 214 212 209 207 205 204 203 202 200 199 198 196 193 190 191 194 196 197
264 267 270 274 275 277 276 275 276 280 285 286 286 289 292 296 299 303 306 307 309 311 312 314 317 318 317 317 316 314 309 304 300 296 295 296 299 304 305 305 305 305 306 308 310 310 301 292 286 278 267 257 246 233 221 215 214 212 209 207 205 204 204 202 200 199 199 198 195 192 191 193 195 197
263 266 269 272 274 276 276 275 276 281 285 286 286 289 292 296 301 305 307 307 309 311 313 316 319 318 318 318 316 313 308 302 297 294 295 300 303 307 308 309 311 311 309 310 313 315 304 290 284 278 266 255 244 232 220 214 213 211 208 206 205 204 204 203 201 200 199 199 197 194 192 193 195 196
262 265 268 271 273 275 275 275 277 282 285 285 286 290 294 298 303 306 307 308 310 312 314 318 320 319 318 318 316 312 306 300 295 293 298 304 306 309 313 315 316 314 312 311 311 314 308 292 282 276 265 253 242 231 219 213 211 210 208 206 204 204 204 204 202 200 200 200 198 195 193 194 196 196
261 264 267 270 272 273 274 275 278 282 283 284 288 293 296 301 305 306 306 308 311 314 316 319 321 320 320 319 317 312 304 297 294 295 302 306 306 312 317 318 318 316 315 315 314 315 312 297 283 274 265 252 241 231 220 212 210 209 207 205 204 203 204 204 203 201 200 199 198 195 195 196 197 197
259 262 266 268 271 272 273 276 278 280 282 287 292 295 299 303 305 305 307 310 313 316 319 320 321 322 322 320 318 313 302 295 296 301 306 307 307 316 322 320 319 318 317 318 318 319 315 301 285 273 264 252 239 230 220 213 209 208 206 205 203 203 203 203 203 202 200 199 198 196 196 197 198 198
258 261 265 267 269 271 273 275 277 279 284 290 293 297 301 304 304 305 309 312 314 318 320 321 322 323 323 322 319 313 301 293 296 301 306 309 313 321 325 320 318 319 319 321 323 321 315 303 288 274 263 250 236 226 219 212 209 207 205 204 203 202 202 203 203 202 201 201 199 197 195 196 198 199
257 260 264 266 267 270 272 273 276 280 287 291 294 298 302 303 304 307 311 314 317 321 321 321 323 324 325 323 320 313 300 293 296 301 308 314 319 323 323 320 320 321 322 324 324 323 318 307 292 275 260 247 233 223 215 210 209 206 204 203 203 202 202 202 203 203 202 202 201 199 195 195 197 198
256 259 262 264 266 268 270 273 277 283 288 292 295 299 301 302 306 310 313 316 320 321 321 322 324 325 326 326 322 313 300 293 297 306 315 320 322 323 323 322 324 325 324 326 327 326 323 314 299 280 260 242 229 219 212 208 207 205 203 202 201 202 202 202 203 204 202 202 202 201 197 195 195 196
255 259 261 262 264 267 269 274 280 285 289 292 296 299 301 304 308 312 315 318 319 320 321 324 325 326 328 329 325 315 303 297 302 312 320 322 322 324 325 325 327 328 327 328 331 331 328 321 308 288 260 237 225 216 208 204 205 204 202 201 200 201 201 201 202 203 202 202 203 202 198 196 196 196
255 258 260 262 264 267 271 276 282 286 289 293 296 299 302 306 311 314 317 319 320 321 324 326 327 329 330 331 327 318 306 302 309 316 320 323 324 325 326 327 327 328 329 331 333 333 331 327 316 296 260 233 221 212 204 201 202 202 201 200 199 200 201 201 202 203 202 203 204 203 201 199 198 198
256 258 261 262 265 268 273 278 283 285 289 293 297 300 304 308 313 316 319 321 321 324 327 329 330 331 332 332 329 320 308 305 311 316 320 326 328 326 327 329 329 329 330 331 335 339 339 335 324 302 262 231 218 209 201 198 198 199 199 198 198 199 200 201 202 202 203 204 205 204 203 202 201 200
257 259 261 262 266 270 274 278 281 285 289 294 298 302 306 311 316 319 321 322 324 327 329 331 331 331 332 333 329 321 311 306 310 317 323 329 330 327 328 330 331 333 332 331 338 348 349 343 332 307 263 230 216 206 199 196 196 196 197 196 196 198 200 200 201 202 203 204 206 206 205 205 204 203
258 259 261 262 265 268 271 276 281 286 291 296 299 303 308 314 318 321 322 324 326 329 330 331 331 332 333 334 330 322 311 306 311 319 326 331 331 330 330 330 331 335 334 333 342 351 350 345 336 315 263 227 215 205 197 194 194 194 194 194 195 197 199 199 200 201 202 204 207 208 207 207 206 205
255 256 257 258 260 264 271 277 282 287 294 298 300 305 312 317 321 322 324 327 328 330 331 331 332 334 335 336 332 323 310 305 310 319 327 332 333 332 330 330 333 337 339 342 348 352 351 350 345 328 269 222 212 204 196 192 191 191 192 193 194 195 197 198 199 200 201 203 207 209 209 209 208 207
248 248 249 252 258 267 273 277 283 290 296 299 302 308 315 320 322 323 326 329 329 330 331 332 333 335 337 337 335 325 310 303 308 318 327 333 336 335 331 333 338 342 345 351 355 356 357 360 357 346 294 221 209 202 196 191 189 189 190 191 192 194 196 197 198 199 200 202 206 209 210 210 209 209
240 242 248 256 264 270 272 277 286 293 298 300 305 312 318 322 324 325 328 330 330 331 333 334 334 335 337 339 338 329 313 303 307 317 328 336 339 337 333 337 344 347 351 358 359 359 5 9 6 360 342 222 206 199 194 189 187 188 188 189 191 192 194 196 197 199 200 201 205 209 211 211 210 210
238 246 255 262 266 269 272 280 289 295 298 302 307 314 321 323 325 327 329 330 330 332 334 334 334 336 338 341 342 334 317 304 307 316 326 337 342 340 334 338 346 350 356 3 1 359 8 16 13 9 8 202 194 192 190 187 185 186 186 188 190 191 192 194 196 198 200 201 204 209 211 211 211 210
243 252 259 261 264 268 273 283 291 296 299 303 309 317 322 325 327 329 330 330 330 331 333 335 336 338 340 343 345 339 322 304 306 316 325 338 345 343 335 339 347 351 357 5 4 1 11 19 19 17 18 52 174 181 185 184 183 184 185 187 188 190 191 193 195 197 200 202 205 209 211 211 211 210
250 256 259 259 262 268 276 285 292 296 299 304 311 319 323 326 328 330 329 329 329 331 334 336 338 339 340 343 347 345 330 305 301 314 324 337 346 345 338 342 352 354 356 3 6 6 12 20 22 21 22 40 155 167 177 182 183 184 185 186 187 188 191 193 194 197 200 202 205 210 212 212 212 212
254 257 257 259 262 269 278 287 292 295 299 306 313 320 324 327 329 330 329 329 330 331 335 338 339 340 341 343 347 348 339 312 296 310 321 331 345 349 343 343 352 355 356 1 4 7 14 21 23 22 25 40 144 165 173 179 182 183 184 185 186 188 190 193 195 197 199 202 205 210 212 213 213 213
254 254 254 258 264 271 279 287 291 294 300 307 314 321 326 328 329 329 329 329 330 331 334 338 340 340 341 343 347 350 345 324 296 304 317 327 344 352 347 340 345 352 356 0 4 7 17 26 27 26 29 42 123 166 172 175 179 184 185 185 186 188 191 194 196 197 199 201 205 209 212 213 214 215
250 249 252 258 266 274 280 286 290 294 300 309 316 322 326 327 328 329 330 330 331 332 335 338 340 340 341 342 346 351 350 336 303 296 314 325 339 348 346 337 333 344 353 0 6 11 20 33 38 37 40 53 109 159 170 172 177 183 186 186 187 189 192 195 197 198 200 201 204 209 212 213 215 216
245 247 254 260 268 275 280 284 288 294 302 311 317 321 324 326 327 329 330 330 332 334 336 338 339 339 341 342 344 349 353 347 318 291 304 321 331 342 349 347 326 326 345 357 6 13 23 39 50 51 52 62 92 147 170 176 180 183 186 187 189 191 193 196 197 199 201 202 204 208 212 213 214 216
244 250 258 264 269 274 279 283 288 295 304 312 317 320 322 325 327 329 330 331 333 334 335 337 338 339 340 342 343 347 353 353 339 301 289 309 324 334 349 354 334 303 326 351 0 11 24 39 58 67 66 66 78 122 165 179 185 186 186 188 190 191 194 197 199 200 202 203 205 208 211 213 214 215
252 258 263 267 269 273 279 284 289 297 305 312 316 318 320 324 326 328 330 331 332 334 335 336 337 338 339 341 342 344 349 354 350 327 289 289 311 325 337 351 347 311 289 322 351 11 27 37 58 83 87 84 94 123 157 179 187 188 189 191 191 192 194 196 198 200 202 204 206 208 210 212 213 215
260 264 266 268 268 273 281 285 290 298 306 311 315 316 318 322 325 327 329 331 332 334 335 335 337 338 338 339 340 341 345 350 353 346 315 281 289 310 321 333 345 339 294 272 303 343 6 18 57 106 110 107 124 154 172 184 188 190 193 194 194 194 195 196 197 198 200 202 205 207 209 211 212 214
264 266 267 268 269 274 281 286 290 298 305 310 313 315 317 320 323 326 328 330 331 332 334 335 336 337 337 337 337 339 341 345 351 353 343 305 277 285 304 314 325 339 332 279 268 285 306 308 263 182 165 167 180 191 196 195 193 194 196 195 195 196 198 197 197 198 199 200 202 204 206 208 211 213
271 270 269 269 271 275 281 287 292 298 305 309 312 314 315 318 321 324 326 329 330 331 333 335 336 337 336 336 335 335 337 340 344 349 351 339 299 273 278 294 305 314 323 307 272 262 261 261 252 227 215 213 208 203 201 198 196 197 198 196 195 197 200 200 200 199 199 200 201 201 202 205 209 211
284 279 274 271 272 275 280 288 294 298 304 309 312 314 314 315 318 321 324 327 329 330 332 334 336 336 335 334 334 332 332 334 337 341 347 350 336 295 269 270 282 292 298 299 285 264 255 249 239 229 230 232 223 212 204 200 199 198 199 199 198 198 200 202 202 202 202 202 202 202 202 204 207 210
312 300 286 277 275 277 282 289 294 298 303 309 312 314 313 313 315 319 322 325 328 329 331 332 334 334 333 332 332 330 328 329 331 334 338 345 346 333 294 266 262 270 280 283 277 267 260 251 238 228 227 234 232 221 210 203 200 198 198 201 201 200 200 202 202 202 203 203 203 204 203 204 206 209
325 316 303 290 284 283 286 291 294 298 303 308 312 313 312 312 313 316 320 324 326 328 329 331 332 332 332 331 329 328 326 325 325 327 329 333 339 342 331 294 263 256 260 268 271 267 259 249 240 235 231 229 230 227 219 211 205 200 197 200 203 203 202 203 203 203 204 204 204 205 204 203 204 207
Height
5405 5404 5403 5402 5400 5398 5397 5395 5393 5391 5389 5386 5384 5381 5377 5374 5374 5372 5371 5368 5360 5351 5343 5333 5328 5323 5317 5314 5308 5301 5296 5288 5281 5275 5267 5261 5255 5248 5243 5239 5235 5232 5228 5224 5220 5216 5214 5212 5213 5215 5218 5220 5224 5228 5232 5238 5245 5254 5263 5271 5279 5288 5297 5306 5319 5332 5348 5366 5384 5397 5406 5418 5430 5442
5398 5397 5396 5395 5394 5392 5390 5388 5387 5384 5382 5379 5376 5374 5370 5366 5364 5362 5361 5362 5355 5345 5337 5327 5320 5316 5309 5305 5300 5293 5287 5280 5272 5266 5260 5253 5246 5241 5237 5233 5229 5226 5222 5218 5214 5210 5207 5205 5205 5207 5209 5213 5216 5220 5224 5229 5237 5245 5254 5261 5270 5280 5290 5301 5314 5327 5342 5358 5374 5387 5398 5410 5421 5431
5391 5391 5389 5388 5387 5385 5383 5382 5380 5377 5374 5372 5369 5366 5363 5359 5357 5353 5351 5353 5349 5339 5330 5322 5313 5308 5302 5297 5292 5286 5278 5272 5264 5257 5251 5245 5239 5234 5231 5226 5222 5219 5215 5211 5207 5204 5201 5199 5198 5199 5202 5205 5208 5212 5216 5221 5229 5237 5246 5254 5261 5272 5283 5295 5306 5320 5335 5350 5364 5377 5388 5399 5409 5418
5383 5383 5382 5381 5379 5378 5376 5375 5373 5370 5367 5364 5362 5359 5356 5352 5349 5346 5342 5343 5342 5333 5322 5316 5308 5301 5295 5289 5284 5278 5272 5264 5257 5250 5244 5239 5233 5228 5225 5221 5216 5213 5210 5206 5202 5198 5195 5193 5192 5192 5194 5197 5200 5203 5207 5213 5220 5229 5239 5247 5255 5264 5276 5288 5299 5311 5326 5342 5356 5367 5378 5388 5397 5410
5375 5375 5374 5373 5372 5370 5369 5368 5365 5363 5360 5357 5355 5352 5349 5345 5341 5338 5335 5332 5333 5328 5317 5308 5301 5295 5288 5283 5275 5270 5265 5257 5250 5244 5238 5232 5227 5223 5219 5216 5213 5209 5206 5203 5198 5194 5190 5187 5186 5186 5187 5189 5192 5195 5200 5205 5211 5220 5229 5238 5247 5257 5269 5280 5290 5303 5317 5333 5345 5357 5369 5379 5389 5404
5368 5367 5367 5366 5364 5363 5362 5361 5358 5356 5353 5350 5349 5345 5341 5339 5334 5330 5327 5323 5322 5321 5313 5302 5294 5288 5281 5276 5268 5261 5256 5250 5243 5238 5232 5227 5222 5218 5214 5212 5210 5206 5202 5198 5194 5190 5186 5182 5180 5180 5181 5183 5185 5188 5192 5197 5204 5212 5220 5229 5238 5250 5261 5271 5282 5295 5308 5323 5336 5347 5358 5370 5383 5399
5360 5360 5360 5358 5356 5355 5355 5354 5351 5349 5346 5344 5342 5338 5334 5331 5328 5323 5319 5316 5312 5311 5307 5297 5288 5282 5276 5269 5261 5254 5248 5243 5237 5232 5227 5222 5218 5214 5210 5208 5206 5202 5198 5194 5190 5186 5182 5179 5176 5174 5175 5177 5179 5182 5185 5191 5198 5205 5212 5221 5231 5243 5255 5265 5275 5287 5298 5312 5326 5335 5344 5355 5370 5388
5354 5353 5352 5351 5349 5348 5347 5347 5344 5342 5340 5337 5334 5332 5328 5324 5321 5317 5311 5308 5303 5300 5299 5291 5281 5275 5270 5263 5255 5247 5241 5236 5230 5226 5221 5217 5214 5209 5206 5204 5201 5197 5193 5189 5186 5182 5178 5175 5172 5170 5169 5171 5173 5175 5179 5185 5192 5199 5207 5216 5227 5239 5250 5259 5268 5278 5288 5299 5312 5323 5334 5345 5359 5375
5347 5346 5345 5344 5342 5341 5340 5339 5337 5335 5333 5331 5328 5325 5322 5317 5314 5310 5304 5300 5296 5291 5289 5284 5276 5268 5262 5256 5248 5240 5234 5230 5224 5219 5215 5212 5209 5205 5202 5199 5195 5191 5188 5184 5180 5177 5174 5171 5168 5166 5164 5165 5167 5170 5174 5180 5186 5194 5203 5212 5221 5232 5243 5251 5260 5269 5278 5289 5302 5315 5328 5341 5354 5366
5339 5338 5338 5337 5335 5334 5333 5332 5330 5328 5326 5324 5321 5318 5315 5311 5307 5303 5298 5293 5289 5284 5279 5275 5269 5262 5254 5249 5242 5233 5227 5223 5218 5214 5211 5207 5204 5200 5198 5195 5190 5185 5181 5178 5175 5172 5170 5166 5163 5161 5159 5159 5161 5164 5168 5174 5181 5188 5197 5205 5214 5224 5234 5244 5252 5261 5271 5283 5297 5311 5324 5336 5348 5358
5332 5331 5330 5329 5328 5327 5326 5325 5323 5321 5319 5317 5315 5312 5308 5305 5301 5297 5292 5287 5282 5277 5272 5266 5261 5254 5247 5241 5235 5228 5220 5215 5210 5206 5205 5204 5200 5195 5193 5191 5185 5179 5175 5172 5169 5166 5163 5161 5158 5155 5154 5154 5155 5158 5161 5167 5175 5183 5192 5200 5208 5218 5228 5238 5246 5255 5266 5279 5292 5305 5317 5330 5341 5351
5324 5324 5323 5322 5321 5320 5319 5318 5316 5314 5313 5311 5309 5305 5302 5298 5295 5290 5286 5281 5276 5271 5266 5259 5253 5247 5240 5233 5228 5222 5214 5209 5204 5200 5197 5197 5196 5191 5188 5185 5179 5173 5169 5166 5164 5160 5156 5154 5152 5149 5148 5148 5149 5152 5155 5161 5169 5177 5186 5194 5202 5212 5222 5232 5241 5251 5261 5274 5286 5298 5310 5322 5333 5344
5317 5316 5316 5315 5314 5314 5312 5311 5309 5308 5306 5305 5303 5299 5295 5292 5288 5284 5279 5274 5270 5265 5260 5254 5246 5239 5233 5226 5221 5216 5208 5202 5200 5196 5192 5191 5189 5186 5184 5181 5172 5165 5162 5161 5158 5154 5148 5146 5145 5143 5142 5142 5142 5145 5150 5155 5162 5171 5180 5188 5196 5206 5216 5225 5235 5246 5257 5268 5280 5291 5304 5316 5327 5337
5309 5309 5309 5309 5308 5307 5306 5304 5303 5302 5300 5299 5296 5293 5290 5286 5282 5278 5274 5269 5265 5260 5254 5248 5240 5233 5227 5220 5214 5210 5203 5197 5195 5192 5188 5186 5184 5180 5178 5177 5168 5157 5153 5153 5152 5147 5141 5138 5137 5136 5136 5135 5135 5138 5144 5149 5156 5163 5172 5182 5190 5200 5210 5219 5230 5241 5251 5263 5274 5285 5297 5309 5321 5333
5302 5303 5303 5303 5302 5301 5300 5298 5297 5296 5294 5292 5290 5287 5284 5280 5277 5272 5268 5264 5260 5255 5249 5243 5235 5228 5221 5215 5208 5203 5198 5193 5190 5188 5184 5181 5178 5175 5171 5170 5164 5153 5146 5145 5145 5142 5135 5129 5129 5130 5129 5128 5128 5131 5137 5142 5148 5156 5165 5175 5184 5194 5204 5214 5224 5235 5245 5257 5269 5280 5291 5304 5316 5328
5295 5296 5297 5297 5296 5295 5293 5292 5291 5290 5288 5286 5284 5281 5277 5274 5270 5265 5261 5258 5254 5249 5243 5237 5230 5222 5216 5210 5203 5197 5192 5189 5186 5184 5181 5176 5173 5170 5165 5161 5156 5148 5140 5138 5138 5137 5131 5122 5120 5123 5122 5121 5121 5125 5129 5134 5141 5149 5157 5168 5178 5188 5198 5208 5219 5230 5240 5251 5263 5275 5287 5300 5312 5323
5289 5290 5291 5290 5290 5288 5287 5287 5285 5284 5283 5280 5278 5275 5272 5268 5264 5259 5255 5251 5247 5242 5237 5231 5225 5218 5211 5205 5199 5191 5187 5185 5183 5180 5177 5172 5168 5166 5160 5154 5149 5143 5135 5132 5132 5132 5126 5115 5112 5116 5115 5113 5114 5118 5122 5127 5134 5142 5151 5161 5172 5182 5192 5202 5214 5224 5235 5246 5258 5269 5282 5296 5308 5320
5282 5284 5285 5284 5284 5283 5281 5281 5280 5279 5277 5275 5272 5269 5266 5262 5258 5254 5250 5246 5241 5236 5230 5224 5219 5213 5206 5200 5194 5188 5182 5180 5179 5176 5173 5169 5165 5161 5156 5149 5144 5138 5131 5126 5124 5125 5120 5109 5105 5108 5107 5105 5108 5112 5116 5121 5127 5135 5144 5154 5165 5176 5186 5197 5208 5219 5230 5242 5254 5265 5278 5291 5304 5316
5277 5278 5278 5278 5278 5277 5276 5275 5274 5273 5272 5269 5266 5263 5260 5257 5253 5249 5245 5240 5236 5230 5224 5218 5213 5208 5201 5194 5189 5183 5179 5176 5174 5172 5169 5165 5160 5157 5151 5145 5140 5134 5127 5120 5116 5117 5113 5102 5098 5100 5099 5098 5102 5106 5110 5117 5122 5129 5138 5148 5159 5170 5180 5191 5203 5214 5226 5238 5249 5261 5274 5287 5299 5312
5271 5272 5272 5272 5272 5271 5270 5270 5269 5268 5266 5264 5261 5258 5255 5252 5248 5244 5240 5235 5230 5225 5219 5213 5208 5202 5196 5190 5184 5179 5175 5172 5171 5168 5165 5160 5155 5151 5146 5142 5137 5131 5124 5116 5110 5108 5104 5095 5091 5092 5091 5091 5095 5098 5103 5111 5118 5124 5133 5143 5154 5165 5175 5186 5198 5209 5221 5233 5245 5257 5269 5282 5295 5307
5265 5266 5266 5266 5266 5265 5265 5265 5264 5263 5261 5259 5256 5253 5250 5247 5244 5239 5235 5230 5224 5219 5214 5208 5203 5198 5192 5186 5180 5174 5171 5168 5167 5164 5161 5156 5150 5146 5141 5138 5134 5127 5119 5112 5105 5100 5095 5088 5084 5084 5083 5084 5088 5091 5096 5104 5112 5120 5128 5138 5149 5161 5171 5182 5193 5204 5216 5229 5240 5252 5265 5277 5291 5303
5260 5260 5260 5260 5260 5260 5260 5260 5259 5258 5256 5254 5251 5248 5246 5243 5239 5235 5230 5225 5219 5214 5209 5204 5198 5193 5188 5182 5176 5171 5167 5165 5163 5160 5157 5152 5147 5142 5137 5132 5129 5123 5115 5108 5101 5094 5088 5081 5078 5077 5076 5078 5081 5084 5089 5097 5106 5115 5124 5133 5144 5156 5167 5178 5188 5199 5212 5224 5235 5247 5260 5272 5284 5296
5254 5254 5254 5254 5255 5255 5255 5255 5254 5253 5251 5249 5246 5244 5242 5238 5235 5231 5226 5221 5215 5210 5205 5200 5194 5189 5183 5178 5172 5167 5164 5162 5159 5156 5152 5148 5143 5139 5133 5127 5122 5118 5111 5104 5097 5090 5083 5077 5073 5071 5071 5072 5074 5078 5084 5091 5101 5111 5121 5130 5141 5152 5164 5175 5185 5196 5208 5220 5230 5242 5254 5266 5278 5290
5248 5249 5249 5249 5250 5251 5251 5250 5249 5248 5246 5244 5242 5240 5237 5234 5230 5226 5222 5217 5212 5207 5201 5196 5190 5184 5179 5173 5168 5164 5161 5159 5156 5153 5150 5146 5140 5135 5130 5125 5118 5112 5106 5101 5095 5087 5080 5074 5070 5068 5067 5068 5070 5074 5079 5087 5096 5107 5118 5128 5139 5150 5160 5171 5182 5194 5206 5216 5225 5237 5249 5260 5272 5284
5243 5243 5244 5245 5246 5246 5246 5245 5244 5243 5241 5240 5238 5236 5233 5230 5227 5222 5218 5213 5208 5203 5197 5191 5186 5180 5174 5169 5164 5161 5158 5156 5154 5151 5147 5143 5138 5132 5127 5123 5117 5110 5103 5097 5093 5086 5078 5072 5068 5065 5064 5065 5067 5071 5076 5084 5093 5103 5114 5125 5136 5146 5157 5168 5180 5192 5203 5212 5221 5232 5244 5255 5268 5280
5238 5239 5240 5241 5241 5241 5241 5241 5240 5239 5237 5235 5234 5232 5229 5226 5223 5218 5214 5209 5204 5199 5193 5188 5183 5177 5172 5166 5161 5158 5155 5153 5151 5148 5145 5140 5136 5130 5125 5120 5116 5110 5103 5096 5089 5083 5076 5070 5066 5064 5063 5063 5066 5070 5075 5082 5090 5099 5110 5121 5132 5142 5153 5165 5177 5189 5201 5210 5218 5229 5241 5252 5264 5275
5233 5234 5236 5236 5237 5237 5237 5237 5236 5234 5233 5231 5230 5228 5225 5222 5219 5215 5210 5206 5201 5196 5191 5186 5181 5176 5170 5164 5159 5155 5153 5151 5149 5146 5143 5139 5135 5130 5124 5119 5115 5110 5104 5097 5088 5082 5076 5071 5066 5063 5062 5063 5066 5069 5074 5079 5087 5097 5108 5119 5129 5140 5150 5162 5174 5186 5198 5208 5215 5224 5235 5245 5257 5269
5229 5230 5232 5232 5233 5233 5233 5233 5232 5231 5229 5228 5226 5224 5222 5218 5215 5211 5207 5202 5198 5193 5189 5184 5179 5174 5168 5163 5158 5154 5151 5149 5147 5145 5141 5138 5133 5129 5124 5120 5115 5110 5104 5097 5090 5083 5078 5072 5066 5064 5062 5063 5065 5069 5073 5079 5086 5096 5106 5117 5127 5137 5147 5159 5171 5182 5194 5203 5209 5218 5228 5240 5252 5262
5226 5227 5228 5229 5229 5230 5229 5229 5228 5227 5226 5224 5223 5221 5218 5215 5211 5208 5203 5199 5195 5191 5186 5182 5177 5172 5167 5161 5156 5152 5150 5148 5146 5143 5140 5136 5132 5128 5124 5120 5116 5110 5104 5097 5091 5086 5080 5073 5068 5065 5064 5064 5066 5069 5073 5079 5087 5095 5105 5116 5126 5136 5146 5157 5168 5178 5190 5199 5206 5214 5225 5237 5248 5258
5223 5224 5225 5225 5226 5226 5226 5226 5225 5223 5222 5221 5219 5217 5214 5211 5208 5204 5200 5196 5193 5188 5184 5179 5175 5170 5165 5160 5155 5151 5148 5146 5145 5142 5139 5135 5131 5127 5123 5120 5115 5111 5105 5099 5093 5088 5083 5076 5071 5068 5066 5067 5068 5071 5076 5082 5089 5097 5107 5117 5126 5135 5145 5156 5166 5176 5188 5198 5205 5212 5220 5232 5243 5253
5220 5221 5221 5222 5223 5223 5223 5222 5221 5220 5219 5218 5216 5214 5211 5208 5205 5201 5197 5194 5190 5186 5181 5177 5173 5169 5164 5159 5154 5149 5146 5145 5143 5141 5138 5135 5131 5127 5123 5120 5115 5111 5106 5101 5096 5091 5086 5080 5075 5072 5071 5070 5072 5075 5079 5085 5092 5100 5109 5118 5128 5138 5148 5157 5166 5176 5186 5197 5204 5209 5216 5226 5238 5248
5217 5218 5218 5219 5219 5220 5219 5219 5218 5217 5216 5215 5213 5211 5208 5205 5202 5198 5195 5191 5188 5184 5180 5175 5171 5167 5162 5157 5152 5148 5145 5143 5142 5140 5137 5134 5131 5127 5124 5121 5117 5113 5108 5104 5100 5095 5090 5085 5081 5078 5076 5076 5077 5080 5084 5090 5096 5103 5111 5119 5129 5140 5149 5157 5166 5175 5184 5193 5200 5205 5213 5223 5234 5245
5214 5215 5215 5216 5216 5217 5216 5216 5215 5214 5213 5212 5210 5208 5205 5202 5199 5196 5192 5189 5186 5182 5178 5173 5169 5165 5161 5156 5151 5147 5144 5142 5141 5139 5136 5134 5131 5127 5125 5122 5119 5115 5111 5107 5104 5100 5094 5090 5087 5085 5083 5083 5084 5086 5090 5095 5101 5107 5114 5122 5131 5141 5149 5157 5165 5173 5181 5190 5198 5203 5211 5221 5231 5241
5211 5212 5213 5213 5214 5214 5214 5213 5212 5211 5210 5209 5207 5205 5202 5200 5197 5193 5190 5187 5184 5180 5176 5172 5168 5164 5160 5155 5151 5146 5143 5141 5140 5138 5136 5134 5131 5128 5125 5123 5120 5117 5114 5110 5107 5104 5100 5096 5093 5091 5090 5090 5091 5092 5095 5100 5106 5112 5119 5126 5134 5142 5150 5158 5165 5172 5180 5188 5196 5201 5208 5217 5227 5236
5209 5209 5210 5210 5211 5211 5211 5210 5209 5209 5208 5206 5204 5202 5200 5197 5194 5191 5188 5185 5181 5178 5174 5170 5167 5163 5159 5155 5151 5146 5142 5140 5139 5137 5136 5134 5132 5129 5126 5124 5122 5119 5116 5114 5111 5108 5105 5102 5099 5098 5097 5096 5097 5099 5101 5105 5111 5117 5123 5130 5137 5144 5152 5158 5164 5171 5178 5186 5194 5200 5206 5215 5224 5233
5206 5207 5207 5208 5208 5208 5208 5207 5207 5206 5205 5203 5201 5199 5197 5195 5192 5189 5186 5182 5179 5176 5172 5168 5165 5162 5158 5154 5150 5146 5142 5139 5138 5137 5135 5133 5132 5129 5127 5125 5123 5121 5119 5117 5115 5113 5110 5108 5106 5104 5103 5102 5103 5105 5108 5111 5115 5119 5126 5133 5139 5145 5151 5158 5164 5170 5177 5185 5193 5199 5205 5213 5221 5229
5204 5204 5205 5206 5206 5206 5205 5205 5204 5203 5202 5200 5199 5197 5195 5193 5190 5187 5184 5180 5177 5173 5170 5167 5164 5160 5157 5154 5150 5147 5143 5139 5137 5136 5135 5133 5132 5130 5128 5126 5124 5123 5121 5119 5118 5116 5114 5113 5111 5109 5108 5108 5109 5111 5113 5116 5119 5123 5128 5135 5140 5146 5152 5159 5165 5171 5177 5184 5191 5197 5203 5210 5218 5225
5202 5202 5203 5203 5203 5203 5203 5202 5202 5201 5199 5198 5196 5194 5192 5190 5188 5185 5181 5178 5175 5172 5169 5166 5163 5159 5156 5153 5150 5146 5143 5140 5137 5136 5135 5133 5132 5131 5129 5127 5126 5124 5123 5122 5120 5119 5118 5116 5115 5114 5113 5113 5114 5116 5118 5121 5124 5127 5131 5136 5142 5148 5154 5160 5166 5172 5178 5184 5190 5196 5201 5207 5214 5220
5200 5201 5201 5201 5201 5201 5200 5200 5199 5198 5197 5195 5194 5192 5190 5188 5185 5183 5180 5176 5173 5170 5167 5164 5161 5158 5155 5152 5149 5146 5143 5140 5137 5135 5134 5133 5132 5131 5130 5128 5127 5125 5124 5124 5123 5122 5121 5120 5119 5119 5118 5119 5120 5121 5122 5124 5127 5130 5134 5138 5142 5147 5153 5159 5165 5171 5177 5183 5189 5194 5198 5203 5209 5215
5199 5199 5199 5199 5199 5198 5198 5197 5196 5195 5194 5193 5192 5190 5188 5186 5183 5180 5177 5174 5171 5168 5166 5163 5160 5157 5154 5151 5149 5146 5143 5140 5138 5135 5133 5132 5132 5131 5130 5129 5128 5127 5125 5125 5124 5124 5124 5123 5123 5122 5123 5123 5124 5125 5126 5127 5129 5132 5135 5139 5143 5148 5153 5159 5164 5170 5175 5181 5186 5192 5197 5201 5206 5210
5197 5197 5197 5197 5197 5196 5195 5195 5194 5193 5192 5191 5189 5188 5186 5183 5181 5178 5175 5172 5170 5167 5164 5161 5158 5155 5152 5150 5147 5145 5143 5140 5138 5135 5133 5132 5131 5130 5130 5129 5128 5127 5126 5126 5125 5125 5125 5125 5125 5125 5126 5126 5127 5128 5129 5130 5132 5134 5136 5140 5145 5150 5154 5159 5163 5168 5173 5178 5184 5189 5194 5198 5201 5206
5195 5195 5195 5195 5194 5194 5193 5192 5191 5191 5190 5189 5187 5185 5183 5181 5178 5176 5173 5170 5168 5165 5162 5160 5157 5154 5151 5149 5146 5144 5142 5140 5138 5135 5133 5131 5130 5129 5129 5129 5128 5128 5127 5126 5126 5126 5126 5126 5126 5126 5127 5128 5128 5129 5130 5131 5133 5135 5138 5141 5145 5149 5153 5158 5162 5166 5171 5176 5181 5186 5190 5194 5198 5203
5194 5193 5193 5192 5192 5191 5191 5190 5189 5188 5187 5186 5185 5183 5181 5178 5176 5174 5171 5168 5166 5163 5160 5158 5155 5153 5150 5148 5145 5143 5141 5139 5137 5135 5133 5131 5129 5128 5128 5128 5127 5127 5127 5127 5126 5126 5126 5126 5126 5127 5127 5128 5128 5129 5131 5132 5134 5136 5138 5141 5144 5148 5152 5156 5161 5165 5170 5174 5178 5183 5187 5191 5196 5201
5192 5192 5191 5191 5190 5189 5188 5188 5187 5186 5185 5184 5182 5180 5178 5176 5174 5171 5169 5166 5163 5161 5158 5156 5154 5151 5149 5147 5144 5142 5140 5138 5137 5135 5133 5131 5129 5128 5127 5126 5126 5126 5126 5126 5126 5126 5126 5126 5126 5126 5127 5127 5128 5129 5130 5131 5133 5136 5138 5141 5144 5147 5150 5154 5159 5163 5167 5171 5176 5180 5184 5189 5194 5199
5191 5191 5190 5189 5188 5187 5186 5185 5185 5184 5183 5181 5180 5178 5176 5173 5171 5169 5166 5164 5161 5159 5156 5154 5152 5149 5147 5145 5143 5141 5139 5137 5136 5134 5132 5131 5129 5128 5126 5125 5125 5125 5125 5125 5125 5125 5126 5125 5126 5126 5126 5127 5128 5128 5129 5131 5132 5134 5137 5139 5142 5146 5149 5153 5157 5161 5164 5168 5172 5176 5181 5186 5191 5196